Flag Weather past 2 weeks in Luhansk, Ukraine

Now
27 °F

Overcast.


Feels Like: 16 °F
Forecast: 28 / 33 °F
Wind: 13 mph from East

Location: Rostov-Na-Donu

Current Time: Nov 28, 2014 at 8:38:33 AM

Latest Report: Nov 28, 2014 at 8:00 AM


Visibility: N/A

Pressure: 30.33 "Hg

Humidity: 80%

Dew point: 21 °F

Location of LuhanskLocation

Historic Weather in Luhansk — Graph

°F

Luhansk temperature yesterday

Maximum temperature yesterday: 30 °F (at 5:00 PM)
Minimum temperature yesterday: 23 °F (at 12:00 AM)
Average temperature yesterday: 26 °F

Past Weeks' High & Low Weather Summary

 TemperatureHumidityPressure
High50 °F (Nov 13, 2:30 PM)100% (Nov 13, 7:30 AM)30.57 "Hg (Nov 13, 7:30 AM)
Low18 °F (Nov 23, 7:00 AM)28% (Nov 21, 2:30 PM)30.12 "Hg (Nov 14, 2:00 PM)
Average31 °F81%30.30 "Hg
* Reported Nov 13 7:30 AM — Nov 28 7:30 AM, Luhansk, Weather by CustomWeather, © 2014

Note: Actual official high and low records may vary slightly from our data, if they occured in-between our weather recording intervals... More about our weather records

Advertising

Luhansk weather history for previous 24 hours

 ConditionsComfort  
Time TempWeatherWind HumidityBarometerVisibility
7:30 AM
Nov 28
27 °FOvercast.15 mph80%30.33 "HgN/A
6:30 AM27 °FOvercast.13 mph80%30.33 "HgN/A
5:30 AM27 °FOvercast.13 mph80%30.30 "HgN/A
5:00 AM27 °FMostly cloudy.15 mph80%30.30 "HgN/A
4:30 AM27 °FMostly cloudy.13 mph80%30.30 "HgN/A
4:00 AM27 °FMostly cloudy.13 mph86%30.30 "HgN/A
3:30 AM27 °FMostly cloudy.13 mph86%30.30 "HgN/A
3:00 AM27 °FOvercast.13 mph86%30.30 "HgN/A
2:30 AM27 °FOvercast.13 mph86%30.30 "HgN/A
2:00 AM27 °FOvercast.13 mph86%30.30 "HgN/A
1:30 AM27 °FOvercast.13 mph93%30.30 "HgN/A
1:00 AM27 °FOvercast.13 mph86%30.30 "HgN/A
12:30 AM27 °FOvercast.13 mph86%30.30 "HgN/A
12:00 AM27 °FOvercast.15 mph86%30.30 "HgN/A
11:30 PM
Nov 27
27 °FOvercast.15 mph80%30.30 "HgN/A
11:00 PM28 °FPassing clouds.13 mph74%30.30 "HgN/A
10:30 PM28 °FPassing clouds.15 mph74%30.30 "HgN/A
10:00 PM28 °FPassing clouds.17 mph69%30.27 "HgN/A
9:30 PM28 °FPassing clouds.15 mph69%30.27 "HgN/A
9:00 PM28 °FMostly cloudy.13 mph74%30.27 "HgN/A
8:30 PM28 °FMostly cloudy.13 mph74%30.27 "HgN/A
8:00 PM28 °FMostly cloudy.15 mph74%30.27 "HgN/A
7:30 PM28 °FMostly cloudy.15 mph74%30.27 "HgN/A
7:00 PM28 °FPartly cloudy.20 mph74%30.27 "HgN/A
6:30 PM28 °FPassing clouds.17 mph80%30.27 "HgN/A
6:00 PM30 °FMostly cloudy.20 mph80%30.27 "HgN/A
5:30 PM28 °FMostly cloudy.17 mph86%30.27 "HgN/A
5:00 PM30 °FMostly cloudy.20 mph80%30.27 "HgN/A
4:30 PM28 °FMostly cloudy.17 mph86%30.27 "HgN/A
4:00 PM28 °FMore clouds than sun.15 mph86%30.24 "HgN/A
3:30 PM28 °FMore clouds than sun.15 mph86%30.24 "HgN/A
3:00 PM28 °FMore clouds than sun.13 mph86%30.24 "HgN/A
2:30 PM27 °FMore clouds than sun.17 mph86%30.24 "HgN/A
2:00 PM27 °FMore clouds than sun.17 mph86%30.24 "HgN/A
1:30 PM27 °FMostly cloudy.17 mph86%30.24 "HgN/A
1:00 PM27 °FMostly cloudy.20 mph86%30.24 "HgN/A
12:30 PM27 °FSnow flurries. Mostly cloudy.17 mph86%30.24 "Hg2 mi
12:00 PM25 °FSnow flurries. Mostly cloudy.17 mph93%30.24 "Hg4 mi
11:30 AM25 °FLight snow. Mostly cloudy.17 mph86%30.27 "Hg5 mi
11:00 AM25 °FLight snow. Mostly cloudy.20 mph80%30.27 "Hg2 mi
10:30 AM25 °FLight snow. Mostly cloudy.17 mph74%30.27 "HgN/A
10:00 AM25 °FMostly cloudy.17 mph69%30.27 "HgN/A
9:30 AM25 °FMostly cloudy.17 mph69%30.27 "HgN/A
9:00 AM25 °FMostly cloudy.17 mph69%30.24 "HgN/A
8:30 AM25 °FMostly cloudy.17 mph69%30.24 "HgN/A
8:00 AM25 °FOvercast.17 mph69%30.24 "HgN/A
Weather by CustomWeather, © 2014

See weather overviewHow to use our weather pages